Regional Weather Roundup
Issued by NWS Austin/San Antonio, TX

Home | Current Version | Previous Version | Text Only | Print | Product List | Glossary On
Versions: 1 2 3 4 5 6 7 8 9 10 11 12 13 14 15 16 17 18 19 20 21 22 23 24 25 26 27 28 29 30 31 32 33 34 35 36 37 38 39 40 41 42 43 44 45 46 47 48 49 50
000
ASUS44 KEWX 260012
RWREWX
SOUTH TEXAS REGIONAL WEATHER ROUNDUP
NATIONAL WEATHER SERVICE AUSTIN/SAN ANTONIO TX
700 PM CDT TUE APR 25 2017

NOTE: "FAIR" INDICATED FEW OR NO CLOUDS BELOW 12,000 FEET WITH NO
SIGNIFICANT WEATHER AND/OR OBSTRUCTIONS TO VISIBILITY.

* - THESE STATIONS ARE NOT NWS OR FAA STATIONS...AND ARE NOT SUBJECT
    TO NWS AND FAA QUALITY CONTROL.

TXZ171-172-183>190-260100-
TEXAS HILL COUNTRY AND EDWARDS PLATEAU

CITY           SKY/WX    TMP DP  RH WIND       PRES   REMARKS
JUNCTION       MOSUNNY   90  50  25 S16G25    29.46F
6HR MIN TEMP:  87; 6HR MAX TEMP:  95;

*LLANO         CLOUDY    86  64  48 S12       29.48S
BURNET         CLOUDY    85  64  49 S13       29.49F
6HR MIN TEMP:  79; 6HR MAX TEMP:  87;

*HORSESHOE BAY CLOUDY    86  64  48 S10G17    29.47F
6HR MIN TEMP:  82; 6HR MAX TEMP:  89;

*KERRVILLE     CLOUDY    82  67  60 S10       29.51F
6HR MIN TEMP:  72; 6HR MAX TEMP:  85;

*FREDERICKSBRG CLOUDY    83  60  46 S8        29.51S
6HR MIN TEMP:  73; 6HR MAX TEMP:  86;

*ROCKSPRINGS   MOSUNNY   82  59  44 S8        29.54F
*BOERNE STAGE  MOSUNNY   82  63  51 S6        29.52F
*CASTROVILLE   MOSUNNY   89  62  40 SE3       29.49S
HONDO          CLOUDY    89  66  46 SE10      29.47F HX  91
6HR MIN TEMP:  79; 6HR MAX TEMP:  91;

*UVALDE        CLOUDY    87  65  48 CALM      29.45F
6HR MIN TEMP:  76; 6HR MAX TEMP:  90;

DEL RIO        CLOUDY    88  64  44 E12       29.40F
6HR MIN TEMP:  82; 6HR MAX TEMP:  91;

LAUGHLIN AFB   PTSUNNY   87  67  52 SE13      29.41F HX  90
6HR MIN TEMP:  81; 6HR MAX TEMP:  90;

CARRIZO SPRGS  SUNNY     97  54  23 SE13G20   29.39F HX  94
*EAGLE PASS    NOT AVBL
$$

TXZ173-191>194-202-209-217>225-228-260100-
CENTRAL AND SOUTH CENTRAL TEXAS

CITY           SKY/WX    TMP DP  RH WIND       PRES   REMARKS
GEORGETOWN     MOSUNNY   84  68  58 SE14G20   29.48
AUSTIN/BERGSTM PTSUNNY   84  70  62 S13       29.48S
6HR MIN TEMP:  80; 6HR MAX TEMP:  91;

AUSTIN/MABRY   PTSUNNY   85  69  58 S7G17     29.49S
6HR MIN TEMP:  76; 6HR MAX TEMP:  90;

*AUSTIN/EXEC   FAIR      82  68  61 S10G21    29.50R
*LAGO VISTA    SUNNY     84  68  57 S14       29.51S
6HR MIN TEMP:  80; 6HR MAX TEMP:  88;

SAN MARCOS     CLOUDY    82  70  65 S16G23    29.49F
6HR MIN TEMP:  81; 6HR MAX TEMP:  90;

NEW BRAUNFELS  MOSUNNY   85  70  60 S16       29.47F
6HR MIN TEMP:  82; 6HR MAX TEMP:  91;

RANDOLPH AFB   MOSUNNY   85  73  68 SE17      29.48S HX  91
6HR MIN TEMP:  81; 6HR MAX TEMP:  91;

PT SAN ANTONIO MOSUNNY   87  67  51 S7        29.45F HX  90
6HR MIN TEMP:  82; 6HR MAX TEMP:  91;

SAN ANTONIO    PTSUNNY   88  64  44 S13       29.48F
6HR MIN TEMP:  78; 6HR MAX TEMP:  90;

STINSON FIELD  SUNNY     90  66  45 S5        29.45F HX  92
6HR MIN TEMP:  83; 6HR MAX TEMP:  94;

*LA GRANGE     CLOUDY    81  72  75 S13G22    29.51R
6HR MIN TEMP:  81; 6HR MAX TEMP:  86;

*GIDDINGS      PTSUNNY   80  68  67 S8G20     29.53R
6HR MIN TEMP:  79; 6HR MAX TEMP:  85;

*GONZALES      PTSUNNY   82  73  73 S14G21    29.51S
6HR MIN TEMP:  82; 6HR MAX TEMP:  89;

$$

TXZ163>164-176>182-195>201-210>213-226-227-235-260100-
SOUTHEAST TEXAS

CITY           SKY/WX    TMP DP  RH WIND       PRES   REMARKS
COLLEGE STN    PTSUNNY   81  67  62 S20G28    29.52S
6HR MIN TEMP:  81; 6HR MAX TEMP:  86;

*BRYAN         PTSUNNY   79  66  64 S17G29    29.53S
6HR MIN TEMP:  79; 6HR MAX TEMP:  85;

*CALDWELL      NOT AVBL
*CROCKETT      PTSUNNY   77  70  78 SE8       29.56S
*BRENHAM       CLOUDY    81  69  68 S21G28    29.53F
6HR MIN TEMP:  81; 6HR MAX TEMP:  85;

HUNTSVILLE     CLOUDY    81  66  60 S14G22    29.54S
6HR MIN TEMP:  79; 6HR MAX TEMP:  86;

CONROE         CLOUDY    79  68  69 S16       29.57S
6HR MIN TEMP:  79; 6HR MAX TEMP:  86;

HOUSTON BUSH   PTSUNNY   79  68  69 S17G23    29.58R
6HR MIN TEMP:  79; 6HR MAX TEMP:  85;

HOUSTON HOBBY  CLOUDY    77  70  79 S16G23    29.58F
6HR MIN TEMP:  77; 6HR MAX TEMP:  83;

*HOUSTON SW AP CLOUDY    77  69  78 S10G18    29.59S
6HR MIN TEMP:  77; 6HR MAX TEMP:  83;

PEARLAND       CLOUDY    79  70  74 S13G21    29.61S
6HR MIN TEMP:  79; 6HR MAX TEMP:  83; 6HR PCP: TRACE;

HOUSTON HOOKS  CLOUDY    80  67  64 S10G20    29.57R
6HR MIN TEMP:  80; 6HR MAX TEMP:  85;

ELLINGTON FLD  PTSUNNY   79  68  69 S14       29.61F
SUGAR LAND     CLOUDY    79  70  74 S16       29.57S
6HR MIN TEMP:  79; 6HR MAX TEMP:  86;

*HOUSTON EXEC  CLOUDY    79  70  73 S15       29.57S
*CLEVELAND MUN CLOUDY    76  70  81 S13       29.59S
6HR MIN TEMP:  76; 6HR MAX TEMP:  82;

*WHARTON       CLOUDY    77  68  73 SE15      29.57S
6HR MIN TEMP:  77; 6HR MAX TEMP:  83;

*COLUMBUS      CLOUDY    77  70  77 S14G21    29.56S
*EAGLE LAKE    CLOUDY    79  72  79 S14G30    29.55S
6HR MIN TEMP:  79; 6HR MAX TEMP:  83;

$$

TXZ214>216-236>238-260100-
THE UPPER TEXAS COAST

CITY           SKY/WX    TMP DP  RH WIND       PRES   REMARKS
*ORANGE        CLOUDY    75  69  81 S12G17    29.67S
6HR MIN TEMP:  75; 6HR MAX TEMP:  78;

PORT ARTHUR    CLOUDY    76  69  79 S14G21    29.63F
6HR MIN TEMP:  76; 6HR MAX TEMP:  80;

GALVESTON      CLOUDY    78  73  84 SE16G23   29.61F
6HR MIN TEMP:  78; 6HR MAX TEMP:  83;

ANGLETON       CLOUDY    80  71  74 S18       29.60S
6HR MIN TEMP:  80; 6HR MAX TEMP:  84;

*BAY CITY      CLOUDY    78  71  80 S15       29.58F
PALACIOS       CLOUDY    78  71  79 SE23G30   29.56F
6HR MIN TEMP:  78; 6HR MAX TEMP:  82;

$$

TXZ229>234-239>247-260100-
TEXAS COASTAL BEND AND RIO GRANDE PLAINS

CITY           SKY/WX    TMP DP  RH WIND       PRES   REMARKS
VICTORIA       CLOUDY    79  70  74 S22G29    29.54S
6HR MIN TEMP:  79; 6HR MAX TEMP:  86;

*BEEVILLE      MOSUNNY   83  74  76 SE16G22   29.49S
6HR MIN TEMP:  83; 6HR MAX TEMP:  90;

ROCKPORT       PTSUNNY   79  71  76 SE20G29   29.51S
6HR MIN TEMP:  79; 6HR MAX TEMP:  86;

*PORT ARANSAS  SUNNY     78  72  82 S22G30    29.51F
6HR MIN TEMP:  78; 6HR MAX TEMP:  82;

*PORT LAVACA   CLOUDY    78  73  86 S20G29    29.55S
6HR MIN TEMP:  78; 6HR MAX TEMP:  82;

*INGLESIDE     SUNNY     81  73  76 S26G35    29.50S
CORPUS CHRISTI MOSUNNY   82  72  71 SE25G36   29.49S
6HR MIN TEMP:  82; 6HR MAX TEMP:  88; 6HR PCP: TRACE;

CORPUS NAS     MOSUNNY   81  74  79 SE29G40   29.50S
6HR MIN TEMP:  81; 6HR MAX TEMP:  87;

*ROBSTOWN      SUNNY     85  72  66 SE21G31   29.48S HX  90
6HR MIN TEMP:  85; 6HR MAX TEMP:  92;

ALICE          SUNNY     86  72  62 SE18      29.45S HX  92
6HR MIN TEMP:  86; 6HR MAX TEMP:  98;

KINGSVILLE NAS MOSUNNY   84  75  74 SE25G35   29.46S HX  92
6HR MIN TEMP:  84; 6HR MAX TEMP:  97;

COTULLA        SUNNY     97  55  24 SE13      29.42F HX  95
6HR MIN TEMP:  86; 6HR MAX TEMP: 100;

*FAITH RANCH   SUNNY    104  18   4 S12G21    29.40F HX  96
LAREDO         SUNNY     98  52  21 SE10      29.43F HX  95
6HR MIN TEMP:  87; 6HR MAX TEMP: 102;

$$

TXZ248>255-260100-
DEEP SOUTH TEXAS

CITY           SKY/WX    TMP DP  RH WIND       PRES   REMARKS
BROWNSVILLE    PTSUNNY   83  73  72 S21G31    29.54R
6HR MIN TEMP:  83; 6HR MAX TEMP:  91;

PORT ISABEL    PTSUNNY   82  72  71 S23G33    29.52F
6HR MIN TEMP:  82; 6HR MAX TEMP:  90;

*SOUTH PADRE   NOT AVBL
HARLINGEN



USA.gov is the U.S. government's official web portal to all federal, state and local government web resources and services.